Regional Weather Roundup
Issued by NWS

Home | Current Version | Previous Version | Text Only | Print | Product List | Glossary On
Versions: 1 2 3 4 5 6 7 8 9 10 11 12 13 14 15 16 17 18 19 20 21 22 23 24 25 26 27 28 29 30 31 32 33 34 35 36 37 38 39 40 41 42 43 44 45 46 47 48 49 50
000
ASUS45 KTFX 050710
RWRMT
MONTANA REGIONAL WEATHER ROUNDUP
NATIONAL WEATHER SERVICE GREAT FALLS MT
100 AM MDT SUN JUL 05 2015

NOTE: "FAIR" INDICATES FEW OR NO CLOUDS BELOW 12000 FEET WITH NO
SIGNIFICANT WEATHER AND/OR OBSTRUCTIONS TO VISIBILITY.

MTZ001>007-043-050800-
WEST OF THE DIVIDE

CITY           SKY/WX    TMP DP  RH WIND       PRES   REMARKS
KALISPELL      MOSUNNY   68  47  46 N25G39    29.88R
MISSOULA       CLEAR     71  41  33 W5        29.82R
BUTTE          MOCLDY    65  38  36 SE5       29.98R
MULLAN PASS    PTCLDY    70  35  27 W5        30.01S
DEER LODGE       N/A     75  39  27 CALM      29.95R
EUREKA           N/A     70  45  40 E14G23    29.94R
HAMILTON         N/A     68  46  45 SE3       29.84S
LIBBY            N/A     68  46  45 NW3       29.80R
PLAINS           N/A     67  46  46 CALM      29.81R
RONAN            N/A     72  56  57 N12       29.88R
THOMPSON FALLS   N/A     67  49  52 CALM      29.83S
$$

MTZ008-052>055-050800-
SOUTHWEST MONTANA

CITY           SKY/WX    TMP DP  RH WIND       PRES   REMARKS
BOZEMAN        MOCLDY    60  48  64 S6        29.86R
DILLON         MOCLDY    66  39  37 SE6       29.92R
W YELLOWSTONE  MOCLDY    57  41  54 NW3       30.04S
THREE FORKS      N/A     65  63  93 CALM      29.86S
TWIN BRIDGES     N/A     64  41  43 N2        29.90S
$$

MTZ009-010-012-014-046-048-049-054-050800-
EAST SLOPES AND CENTRAL MONTANA

CITY           SKY/WX    TMP DP  RH WIND       PRES   REMARKS
CUT BANK       CLOUDY    52  50  93 N21G29    30.13R FOG
GREAT FALLS    CLOUDY    59  51  75 N18G30    30.04R
MALMSTROM AFB  MOCLDY    59  51  74 N24G33    30.01R
HELENA         MOCLDY    65  51  60 N17G37    30.00R
$$

MTZ011-013-016-021-045-047-050-051-050800-
NORTH CENTRAL MONTANA

CITY           SKY/WX    TMP DP  RH WIND       PRES   REMARKS
LEWISTOWN      MOCLDY    72  56  57 NE12      29.87R
FORT BENTON      N/A     61  54  77 N17G28    29.97R
$$

MTZ017>020-022>027-061-062-050800-
NORTHEAST MONTANA

CITY           SKY/WX    TMP DP  RH WIND       PRES   REMARKS
GLASGOW        TSTM      65  57  75 N22G32    29.82R
JORDAN           N/A     72  61  68 E10       29.74F
SIDNEY         CLEAR     68  61  77 N7        29.77F
WOLF POINT     MOCLDY    68  56  65 NE8       29.78R HAZE
PLENTYWOOD       N/A     64  59  82 N12G20    29.81S
POPLAR           N/A     66  57  72 N6        29.79R
SCOBEY           N/A     60  52  75 N6        29.87R
$$

MTZ028>42-056>058-050800-
SOUTHCENTRAL AND SOUTHEAST MONTANA

CITY           SKY/WX    TMP DP  RH WIND       PRES   REMARKS
BAKER          PTCLDY    64  54  69 E5        29.78F
BILLINGS       PTCLDY    75  57  53 NE3       29.78F
LIVINGSTON     PTCLDY    74  47  38 SE10      29.86S
MILES CITY     PTCLDY    71  61  70 NE12      29.73F
EKALAKA          N/A     72  57  58 SE7       29.80F
FORSYTH          N/A     70  55  60 E6        29.71F
LAUREL           N/A     73  54  51 CALM      29.80F
ROUNDUP          N/A     71  56  59 CALM      29.74S
$$

REGIONAL REPORTS...DAKOTAS

CITY           SKY/WX    TMP DP  RH WIND       PRES   REMARKS
WILLISTON      CLEAR     67  61  81 NE9       29.78S
MINOT          PTCLDY    62  60  93 NW3       29.77R FOG
DICKINSON      CLEAR     62  58  86 CALM      29.75F
BEACH          FAIR      59  59 100 N3        29.78F
CROSBY         FAIR      59  59 100 CALM      29.80F
BISMARCK       CLEAR     70  68  93 SE3       29.73R
GRAND FORKS    LGT RAIN  68  64  87 W7        29.74F
FARGO          CLOUDY    74  65  73 S10       29.77S
BUFFALO SD       N/A     71  53  52 CALM      29.72F
RAPID CITY     CLEAR     66  61  84 S5        29.83S
$$

REGIONAL REPORTS...WYOMING/IDAHO/WASHINGTON

CITY           SKY/WX    TMP DP  RH WIND       PRES   REMARKS
GILLETTE       CLEAR     73  53  49 S15       29.85S
SHERIDAN       CLEAR     64  54  69 CALM      29.79F
BUFFALO WY     CLEAR     71  54  54 SE8       29.90F
CODY           PTCLDY    73  46  38 SW3       29.90S
YELLOWSTONE LA   N/A     53  41  63 CALM      30.16F
IDAHO FALLS    MOCLDY    76  51  41 S17       29.89F
SALMON         MOCLDY    73  43  33 S3        29.84R
BOISE          MOCLDY    83  39  21 CALM      29.79R
SPOKANE        PTCLDY    81  35  19 N10       29.77R
$$

REGIONAL REPORTS...ALBERTA

CITY           SKY/WX    TMP DP  RH WIND       PRES   REMARKS
EDMONTON       MOCLDY    55  43  62 NW10      30.07R
CALGARY        MOCLDY    55  41  58 NW8       30.17R
LETHBRIDGE     LGT RAIN  54  50  87 NW15G21   30.16R
MEDICINE HAT   LGT RAIN  55  54  94 N7        30.07R
WATERTON GATE    N/A     48  46  93 N7          N/A
MILK RIVER       N/A     52  52 100 N18G24      N/A
ONEFOUR          N/A     55  52  88 NE17        N/A
$$

REGIONAL REPORTS...SASKATCHEWAN

CITY           SKY/WX    TMP DP  RH WIND       PRES   REMARKS
SWIFT CURRENT  CLOUDY    61  50  67 N12G17    29.99R HAZE
REGINA         MOCLDY    61  59  94 N8        29.88R FOG
SASKATOON      MOCLDY    59  50  72 NW7       29.90R SMOKE
CYPRESS HILLS    N/A     50  46  87 N6          N/A
VAL MARIE        N/A     57  52  82 N18G26      N/A
ROCKGLEN         N/A     61  55  82 N13G18      N/A
ASSINIBOIA       N/A     55  50  82 NW16        N/A
$$



USA.gov is the U.S. government's official web portal to all federal, state and local government web resources and services.